Location: Unspecified
(35.7250°N, 0.0000°E)
Time: 11:34:56
(UTC+00:00)

Vanguard 2 - Pass Details

Date: 24 June 2019
Orbit: 553 x 2938 km, 32.9° (Epoch: 17 August)

Event Time Altitude Azimuth Distance (km) Brightness Sun altitude
Rises 14:51:05 0° 269° (W) 5,026 12.3 51.6°
Reaches altitude 10° 14:55:22 10° 253° (WSW) 4,432 12.3 50.8°
Maximum altitude 15:03:33 20° 213° (SSW) 4,289 12.0 49.1°
Drops below altitude 10° 15:13:40 10° 175° (S) 5,573 12.0 47.1°
Sets 15:20:17 0° 161° (SSE) 6,752 12.2 45.7°
